Crosby, ND

8:35 AM CST on November 21, 2019 (GMT -0600)
Crosby

Weather History for KD50 - September, 2019

Change the Weather History Date:

Sunday, September 15, 2019

  Actual Average (WUND) Record (WUND)
Temperature  
Mean Temperature 69 °F -  
Max Temperature 87 °F - - (-1)
Min Temperature 51 °F - - (-1)
Cooling Degree Days 4    
Growing Degree Days 19 (Base 50)    
Moisture  
Dew Point 52 °F    
Average Humidity 64    
Maximum Humidity 100    
Minimum Humidity 25    
Precipitation  
Precipitation 0.00 in - - ()
Sea Level Pressure  
Sea Level Pressure 29.81 in    
Wind  
Wind Speed 10 mph (South)    
Max Wind Speed 14 mph    
Max Gust Speed 17 mph    
Visibility 10 miles    
Events      
Averages and records for this station are not official NWS values.
T = Trace of Precipitation, MM = Missing Value Source: NWS Daily Summary

Daily Weather History Graph

Daily Weather History Graph

Search for Another Location

Airport or City:

Astronomy

Sep. 15, 2019 Rise Set
Actual Time 7:29 AM CDT 8:06 PM CDT
Civil Twilight 6:57 AM CDT 8:38 PM CDT
Nautical Twilight 6:19 AM CDT 9:15 PM CDT
Astronomical Twilight 5:39 AM CDT 9:55 PM CDT
Moon 9:10 PM CDT (9/15) 8:44 AM CDT (9/15)
Length of Visible Light 13h 40m
Length of Day
12h 36m
Full, 98% of the Moon is Illuminated
Sep 15
Full
Sep 21
Last Quarter
Sep 28
New
Oct 5
First Quarter
Oct 13
Full

Hourly Weather History & Observations

Time (CDT) Temp. Heat Index Dew Point Humidity Pressure Visibility Wind Dir Wind Speed Gust Speed Precip Events Conditions
12:15 AM 53.6 °F - 50.0 °F 88% 29.86 in 10.0 mi SSW 10.4 mph - N/A   Clear
12:35 AM 53.6 °F - 50.0 °F 88% 29.85 in 10.0 mi South 10.4 mph - N/A   Clear
12:55 AM 53.6 °F - 50.0 °F 88% 29.85 in 10.0 mi SSW 9.2 mph - N/A   Clear
1:15 AM 51.8 °F - 50.0 °F 94% 29.85 in 10.0 mi SSW 11.5 mph - N/A   Clear
1:35 AM 51.8 °F - 50.0 °F 94% 29.85 in 10.0 mi SSW 10.4 mph - N/A   Clear
1:55 AM 53.6 °F - 50.0 °F 88% 29.85 in 10.0 mi SSW 11.5 mph - N/A   Clear
2:35 AM 55.4 °F - 48.2 °F 77% 29.85 in 10.0 mi SSW 10.4 mph - N/A   Clear
2:55 AM 53.6 °F - 50.0 °F 88% 29.85 in 10.0 mi SSW 10.4 mph - N/A   Clear
3:15 AM 53.6 °F - 50.0 °F 88% 29.85 in 10.0 mi SSW 11.5 mph - N/A   Clear
3:35 AM 53.6 °F - 50.0 °F 88% 29.84 in 10.0 mi SSW 12.7 mph - N/A   Clear
3:55 AM 53.6 °F - 48.2 °F 82% 29.84 in 10.0 mi SSW 11.5 mph - N/A   Clear
4:15 AM 53.6 °F - 48.2 °F 82% 29.85 in 10.0 mi SSW 9.2 mph - N/A   Clear
4:55 AM 53.6 °F - 48.2 °F 82% 29.85 in 10.0 mi SSW 10.4 mph - N/A   Clear
5:15 AM 53.6 °F - 48.2 °F 82% 29.85 in 10.0 mi SSW 11.5 mph - N/A   Clear
5:35 AM 53.6 °F - 48.2 °F 82% 29.85 in 10.0 mi SSW 10.4 mph - N/A   Clear
5:55 AM 53.6 °F - 48.2 °F 82% 29.85 in 10.0 mi SSW 9.2 mph - N/A   Clear
6:15 AM 53.6 °F - 48.2 °F 82% 29.85 in 10.0 mi SSW 10.4 mph - N/A   Clear
6:35 AM 53.6 °F - 48.2 °F 82% 29.85 in 10.0 mi SSW 11.5 mph - N/A   Clear
6:55 AM 51.8 °F - 50.0 °F 94% 29.85 in 10.0 mi SSW 10.4 mph - N/A   Clear
7:15 AM 51.8 °F - 50.0 °F 94% 29.85 in 10.0 mi SSW 10.4 mph - N/A   Clear
7:35 AM 51.8 °F - 50.0 °F 94% 29.85 in 10.0 mi SSW 11.5 mph - N/A   Clear
7:55 AM 53.6 °F - 50.0 °F 88% 29.85 in 10.0 mi SSW 11.5 mph - N/A   Clear
8:15 AM 55.4 °F - 50.0 °F 82% 29.86 in 10.0 mi SSW 10.4 mph - N/A   Clear
8:35 AM 55.4 °F - 50.0 °F 82% 29.85 in 10.0 mi SSW 9.2 mph - N/A   Clear
8:55 AM 57.2 °F - 50.0 °F 77% 29.85 in 10.0 mi SSW 10.4 mph - N/A   Clear
9:15 AM 59.0 °F - 50.0 °F 72% 29.85 in 10.0 mi SSW 10.4 mph - N/A   Clear
9:35 AM 60.8 °F - 50.0 °F 68% 29.85 in 10.0 mi SSW 12.7 mph - N/A   Clear
9:55 AM 62.6 °F - 51.8 °F 68% 29.85 in 10.0 mi SSW 11.5 mph - N/A   Clear
10:35 AM 69.8 °F - 51.8 °F 53% 29.85 in 10.0 mi SSW 9.2 mph - N/A   Clear
10:55 AM 71.6 °F - 51.8 °F 50% 29.85 in 10.0 mi SSW 9.2 mph - N/A   Clear
11:15 AM 73.4 °F - 51.8 °F 47% 29.84 in 10.0 mi South 8.1 mph - N/A   Clear
11:55 AM 78.8 °F - 51.8 °F 39% 29.83 in 10.0 mi SSW 8.1 mph - N/A   Clear
12:15 PM 80.6 °F - 50.0 °F 34% 29.83 in 10.0 mi South 11.5 mph - N/A   Clear
12:35 PM 82.4 °F - 50.0 °F 32% 29.82 in 10.0 mi South 12.7 mph - N/A   Clear
12:55 PM 82.4 °F - 48.2 °F 30% 29.81 in 10.0 mi South 12.7 mph - N/A   Clear
1:15 PM 84.2 °F - 50.0 °F 30% 29.81 in 10.0 mi South 10.4 mph - N/A   Clear
1:35 PM 84.2 °F - 48.2 °F 29% 29.81 in 10.0 mi South 11.5 mph 17.3 mph N/A   Clear
1:55 PM 86.0 °F - 48.2 °F 27% 29.80 in 10.0 mi South 11.5 mph - N/A   Clear
2:15 PM 86.0 °F - 48.2 °F 27% 29.79 in 10.0 mi South 13.8 mph - N/A   Clear
2:35 PM 86.0 °F - 48.2 °F 27% 29.79 in 10.0 mi South 10.4 mph 17.3 mph N/A   Clear
2:55 PM 87.8 °F - 48.2 °F 25% 29.78 in 10.0 mi SSW 11.5 mph - N/A   Clear
3:15 PM 87.8 °F - 48.2 °F 25% 29.78 in 10.0 mi South 10.4 mph 16.1 mph N/A   Clear
3:35 PM 87.8 °F - 48.2 °F 25% 29.78 in 10.0 mi SSW 9.2 mph - N/A   Clear
3:55 PM 87.8 °F - 50.0 °F 27% 29.77 in 10.0 mi SSE 11.5 mph - N/A   Clear
4:15 PM 87.8 °F - 50.0 °F 27% 29.77 in 10.0 mi SSE 9.2 mph 16.1 mph N/A   Clear
4:35 PM 87.8 °F - 50.0 °F 27% 29.76 in 10.0 mi SSE 9.2 mph - N/A   Clear
4:55 PM 87.8 °F - 50.0 °F 27% 29.76 in 10.0 mi South 8.1 mph - N/A   Clear
5:15 PM 87.8 °F - 50.0 °F 27% 29.76 in 10.0 mi SSE 4.6 mph 11.5 mph N/A   Clear
5:35 PM 87.8 °F - 50.0 °F 27% 29.76 in 10.0 mi SSE 6.9 mph - N/A   Clear
5:55 PM 86.0 °F - 51.8 °F 31% 29.76 in 10.0 mi SSE 10.4 mph - N/A   Clear
6:15 PM 87.8 °F - 50.0 °F 27% 29.75 in 10.0 mi South 6.9 mph - N/A   Clear
6:35 PM 86.0 °F - 51.8 °F 31% 29.75 in 10.0 mi SSE 8.1 mph - N/A   Clear
6:55 PM 84.2 °F - 51.8 °F 33% 29.75 in 10.0 mi SSE 5.8 mph - N/A   Clear
7:15 PM 82.4 °F 81.4 °F 53.6 °F 37% 29.75 in 10.0 mi South 3.5 mph - N/A   Clear
7:35 PM 80.6 °F 80.5 °F 55.4 °F 42% 29.75 in 8.0 mi SE 3.5 mph - N/A   Clear
7:55 PM 75.2 °F - 55.4 °F 50% 29.75 in 10.0 mi ESE 4.6 mph - N/A   Clear
8:15 PM 71.6 °F - 55.4 °F 57% 29.75 in 9.0 mi ESE 5.8 mph - N/A   Clear
8:35 PM 66.2 °F - 59.0 °F 78% 29.76 in 10.0 mi ESE 6.9 mph - N/A   Clear
8:55 PM 64.4 °F - 59.0 °F 83% 29.76 in 10.0 mi SE 8.1 mph - N/A   Clear
9:15 PM 64.4 °F - 60.8 °F 88% 29.76 in 10.0 mi SSE 5.8 mph - N/A   Clear
9:35 PM 64.4 °F - 60.8 °F 88% 29.76 in 10.0 mi SSE 3.5 mph - N/A   Clear
9:55 PM 62.6 °F - 59.0 °F 88% 29.76 in 10.0 mi Calm Calm - N/A   Clear
10:15 PM 60.8 °F - 59.0 °F 94% 29.76 in 10.0 mi Calm Calm - N/A   Partly Cloudy
10:35 PM 60.8 °F - 59.0 °F 94% 29.76 in 10.0 mi Calm Calm - N/A   Partly Cloudy
10:55 PM 59.0 °F - 59.0 °F 100% 29.76 in 10.0 mi Calm Calm - N/A   Clear
11:15 PM 59.0 °F - 59.0 °F 100% 29.76 in 10.0 mi Calm Calm - N/A   Clear
11:35 PM 60.8 °F - 60.8 °F 100% 29.76 in 10.0 mi Calm Calm - N/A   Partly Cloudy
11:55 PM 57.2 °F - 57.2 °F 100% 29.76 in 10.0 mi Calm Calm - N/A   Partly Cloudy